CSS (MENGTIAN)

Last updated on Sat Jun 21 2025 00:02:09 GMT+0000 (Coordinated Universal Time)

1 54216U 22143A 25171.58824032 .00022348 00000+0 28137-3 0 9990 2 54216 41.4649 0.0172 0004159 149.7467 210.3612 15.59097960149612
UTC large
Height (km)
Speed (km/s)
/
Latitude / Longitude
Inclination (degrees)
Orbital Period (minutes)
Azimuth
Elevation
Range (km)
Doppler Factor

Next 0 passes for location: London (51.5072 / 0.1276)

Sorry there are no passes over London.